User: anonymous   Login
Location: Vancouver
(49.2500°N, 123.1330°W)
Time: 10:13:27
(UTC-07:00)
Language:

H-2A R/B - Orbit

View from above orbital plane
View from above orbital plane
View from above satellite
View from above satellite

Ground track
Ground track

The orbit data is extracted from the following two-line orbital elements,

1 27601U 02056E   16270.37885699  .00000033  00000-0  27560-4 0  9990
2 27601  98.4105 340.8324 0072063 358.3260  54.9276 14.31735531720065
Epoch (UTC): 26 September 2016 09:05:33
Eccentricity: 0.0072063
inclination: 98.4105°
perigee height: 734 km
apogee height: 837 km
right ascension of ascending node: 340.8324°
argument of perigee: 358.3260°
revolutions per day: 14.31735531
mean anomaly at epoch: 54.9276°
orbit number at epoch: 72006

The dashed part of the orbit path shows where the satellite is in the earth's shadow,  

DLR